This demonstration page uses our WeatherBlox Daily Observations layout. Learn more.

Left ArrowRight Arrow

39.01783, -85.05884

Hourly Observations for May 30, 2015

Temp ( °F °C ) Dew Point ( °F °C ) Humidity (%) Winds ( mph kmh ) Pressure ( in mb ) Visibility ( mi km ) Precip ( " mm )
12:52 am 00:52 Partly Cloudy 71 21.7 66 18.9 84 84 SSW 6 9 30.05 1018 10 16 0.00 0.00
1:52 am 01:52 Partly Cloudy 70 21.1 65 18.3 84 84 S 7 11 30.04 1017 10 16 0.00 0.00
2:52 am 02:52 Mostly Clear 69 20.6 65 18.3 87 87 S 7 11 30.03 1017 10 16 0.00 0.00
3:52 am 03:52 Mostly Clear 69 20.6 65 18.3 87 87 S 7 11 30.03 1017 10 16 0.00 0.00
4:52 am 04:52 Mostly Cloudy 68 20 64 17.8 87 87 S 7 11 30.03 1017 10 16 0.00 0.00
5:52 am 05:52 Mostly Cloudy 68 20 65 18.3 90 90 S 7 11 30.04 1017 10 16 0.00 0.00
6:52 am 06:52 Mostly Cloudy 69 20.6 65 18.3 87 87 SSW 5 7 30.05 1018 10 16 0.00 0.00
7:52 am 07:52 Mostly Cloudy 71 21.7 65 18.3 81 81 S 7 11 30.05 1018 10 16 0.00 0.00
8:52 am 08:52 Partly Cloudy 74 23.3 66 18.9 76 76 SSW 12 19 30.06 1018 10 16 0.00 0.00
9:52 am 09:52 Mostly Sunny 76 24.4 67 19.4 74 74 SSW 7 11 30.06 1018 10 16 0.00 0.00
10:52 am 10:52 Partly Cloudy 79 26.1 68 20 69 69 S 12 19 30.05 1018 10 16 0.00 0.00
11:52 am 11:52 Partly Cloudy 81 27.2 68 20 65 65 SW 9 15 30.04 1017 10 16 0.00 0.00
12:52 pm 12:52 Partly Cloudy 82 27.8 68 20 63 63 SW 10 17 30.02 1017 10 16 0.00 0.00
1:52 pm 13:52 Mostly Cloudy 82 27.8 65 18.3 56 56 SSW 18 30 30.01 1016 10 16 0.00 0.00
3:52 pm 15:52 Mostly Cloudy 84 28.9 67 19.4 57 57 S 13 20 29.96 1014 10 16 0.00 0.00
4:52 pm 16:52 Mostly Cloudy 81 27.2 71 21.7 72 72 SSW 6 9 29.95 1014 10 16 0.00 0.03
5:52 pm 17:52 Mostly Cloudy 82 27.8 66 18.9 58 58 SSW 13 20 29.93 1014 10 16 0.00 0.00
6:52 pm 18:52 Mostly Cloudy 77 25 65 18.3 66 66 SSW 8 13 29.93 1014 10 16 0.00 0.00
7:52 pm 19:52 Mostly Cloudy 78 25.6 66 18.9 67 67 SSW 6 9 29.94 1014 10 16 0.00 0.00
8:52 pm 20:52 Mostly Cloudy 75 23.9 66 18.9 74 74 S 7 11 29.95 1014 10 16 0.00 0.00
9:52 pm 21:52 Mostly Cloudy 73 22.8 66 18.9 79 79 S 7 11 29.94 1014 10 16 0.00 0.00
10:52 pm 22:52 Mostly Cloudy 74 23.3 65 18.3 74 74 S 6 9 29.95 1014 10 16 0.00 0.00
11:52 pm 23:52 Partly Cloudy 75 23.9 63 17.2 66 66 SSW 7 11 29.95 1014 10 16 0.00 0.00

Powered by AerisWeather